Theta_e
343 343 342 342 342 342 341 340 340 339 338 334 332 333 333 334 337 342 343 342 342 343 344 342 342 342 343 342 338 335 337 338 338 338 337 338 339 339 339 339 338 339 339
341 343 342 341 341 342 342 341 340 339 338 336 332 332 333 332 333 335 337 340 341 342 342 342 342 342 342 341 337 335 333 336 337 338 337 337 338 339 339 338 338 339 337
340 343 342 341 341 341 342 341 340 339 338 337 333 332 334 332 330 331 333 336 337 337 338 340 340 339 338 338 334 333 333 333 337 338 337 338 337 342 343 339 337 337 337
343 342 343 342 340 340 341 341 340 339 337 337 333 332 334 332 330 330 332 335 336 336 335 334 334 333 333 332 334 337 336 335 337 338 337 337 336 340 342 341 337 337 337
347 343 343 341 340 340 341 340 339 338 337 338 335 333 334 333 332 331 333 335 339 339 338 336 338 342 338 338 339 337 335 338 338 338 339 337 335 333 336 339 336 336 336
350 344 343 341 340 340 340 339 338 337 337 338 338 334 334 334 333 332 332 335 337 342 343 342 341 342 340 338 338 337 336 337 339 337 338 338 337 333 335 337 335 336 336
351 347 342 341 341 340 340 338 337 337 338 339 340 335 334 335 335 333 333 334 337 343 343 340 337 337 337 338 337 336 336 338 339 338 337 336 337 328 334 334 335 335 336
349 351 346 342 341 340 339 338 337 339 340 341 341 338 335 335 336 335 333 334 336 341 342 341 337 337 338 337 337 337 337 338 338 338 336 336 332 331 336 335 335 334 335
349 350 348 344 341 340 339 338 338 339 341 342 342 340 336 335 337 336 334 335 336 339 342 341 339 338 338 337 338 337 337 337 335 335 336 335 333 335 335 335 334 334 335
349 349 348 347 345 341 340 338 339 340 342 342 341 340 337 336 338 338 337 336 336 338 340 341 339 338 338 337 337 337 337 336 334 335 336 335 332 334 331 334 334 335 334
351 350 348 347 346 344 341 338 339 341 342 342 342 342 341 339 339 339 339 337 337 337 339 340 339 338 337 336 336 336 337 336 334 334 332 334 333 334 333 335 334 334 335
350 351 351 350 349 346 341 339 338 341 342 342 343 343 343 342 341 341 340 338 337 338 339 340 339 339 338 336 336 336 336 335 335 332 333 335 335 334 334 334 334 333 335
334 349 350 351 350 346 341 339 339 339 340 341 342 343 342 342 343 342 341 339 338 338 339 340 340 340 338 337 337 336 335 335 335 333 334 335 335 335 333 333 333 333 334
315 317 343 350 350 348 342 339 338 338 339 339 339 339 340 340 341 342 340 339 338 338 339 340 340 338 337 337 336 335 337 338 335 334 336 335 335 331 329 329 333 334 334
325 324 346 347 348 347 344 342 341 338 337 336 337 337 337 338 337 340 340 339 338 338 340 341 340 338 337 336 336 336 336 339 337 334 336 335 334 331 331 332 333 334 334
325 331 344 344 342 344 343 346 346 345 341 337 336 335 335 336 337 337 342 343 341 341 340 340 340 339 337 336 336 336 337 338 337 337 337 336 335 333 332 332 332 332 333
324 324 324 324 323 328 337 338 339 343 344 343 341 338 337 337 338 338 341 345 345 343 343 341 341 340 339 338 337 337 338 339 337 337 337 336 335 333 331 332 331 331 331
322 322 322 322 322 323 323 324 324 327 333 335 335 337 339 337 340 340 340 342 342 344 343 341 342 341 340 340 340 337 338 338 337 338 337 336 335 334 332 330 330 332 331
319 318 317 318 318 319 319 320 321 322 324 324 323 326 329 325 339 339 340 342 343 342 342 342 342 341 340 340 340 336 338 337 337 337 336 336 335 334 334 333 330 331 332
315 315 315 315 314 315 316 317 317 318 319 320 320 321 324 331 332 327 338 338 339 341 341 342 342 341 341 338 338 337 338 338 337 336 336 335 335 333 334 333 330 328 330
312 312 312 311 310 311 310 310 312 311 312 316 316 317 319 322 325 329 336 338 337 337 338 339 341 340 339 338 337 337 338 338 337 336 336 335 335 334 334 333 332 330 328
309 309 308 308 307 307 307 306 305 306 309 309 311 312 314 316 317 318 323 331 336 337 337 336 336 337 339 337 337 332 331 333 336 336 335 335 334 334 333 333 332 331 330
306 306 305 305 304 304 303 303 304 306 306 307 307 308 308 309 310 311 314 317 323 333 335 335 335 335 335 335 336 332 327 331 326 333 335 334 334 334 333 333 332 331 330
303 303 302 302 301 300 300 299 299 299 300 301 301 302 305 306 308 309 310 311 314 318 329 336 335 333 334 332 331 334 330 329 326 327 331 333 334 333 332 332 332 331 330
300 299 299 298 297 296 297 297 297 296 296 297 298 299 300 303 304 305 307 308 310 313 316 328 336 335 333 331 329 332 331 328 326 323 325 327 331 332 332 331 331 331 330
297 297 296 295 294 293 293 293 294 294 295 295 295 296 298 299 300 302 304 305 307 310 315 320 332 334 334 330 329 329 331 329 326 324 322 323 327 329 331 332 331 330 330
Wind_Speed
20 26 24 23 23 24 25 24 23 21 19 18 16 15 15 16 18 20 20 20 20 20 18 19 18 16 13 9 7 7 6 5 5 7 9 11 14 16 18 20 18 19 19
21 26 24 23 22 22 23 23 22 20 19 19 18 17 16 16 16 17 18 18 19 17 16 16 15 13 10 8 6 5 5 5 5 5 8 13 15 17 17 15 17 19 18
19 24 24 22 22 22 21 21 20 19 19 19 19 19 17 17 17 17 17 18 17 16 16 15 14 12 10 8 6 4 3 4 6 5 7 12 15 17 14 13 14 16 17
17 22 24 23 21 21 20 20 19 19 19 20 20 19 18 17 17 17 17 16 16 15 14 14 13 11 9 7 5 5 5 6 5 5 6 10 10 12 12 10 12 14 17
14 21 23 22 21 19 19 18 19 19 19 20 20 20 19 18 18 18 17 16 14 13 12 13 12 9 8 7 5 5 6 6 5 7 7 7 9 6 4 7 12 13 14
14 19 21 23 22 20 19 18 18 19 19 20 20 20 20 19 18 18 17 16 14 12 11 9 10 9 7 6 6 6 6 6 5 7 7 6 7 12 8 7 11 15 16
14 17 21 22 23 21 20 19 18 18 19 20 20 21 21 20 18 18 17 16 15 13 11 10 10 9 8 7 7 7 7 7 6 7 7 6 12 13 13 14 14 16 17
11 17 18 21 23 22 20 19 18 18 19 20 21 21 21 20 18 18 18 17 17 15 12 11 10 9 8 8 8 8 8 7 7 8 6 13 9 13 12 14 14 15 17
10 18 18 19 22 21 20 18 18 18 19 19 20 20 21 20 19 18 19 19 18 16 13 11 10 10 10 9 9 9 9 8 7 8 8 7 13 13 13 15 16 17 18
12 17 20 20 21 22 22 20 19 18 19 20 19 20 21 21 20 19 19 20 19 18 16 14 12 11 11 11 11 11 11 10 9 9 9 5 15 15 14 14 17 19 19
14 17 19 21 21 21 24 24 22 20 19 19 19 20 21 22 23 22 21 21 21 20 18 16 14 13 13 13 13 12 12 11 12 11 11 10 14 12 12 15 19 20 19
15 18 21 21 21 21 25 26 25 23 23 23 23 22 23 23 24 23 23 23 23 22 20 19 17 15 15 15 14 14 13 12 13 13 12 13 15 15 13 15 19 20 20
12 18 23 24 21 20 24 25 25 25 24 24 24 25 25 24 24 25 25 25 26 25 24 22 20 19 18 18 17 16 15 14 15 14 14 13 17 15 19 16 19 20 21
10 11 24 25 22 21 21 24 24 23 24 25 25 25 26 26 27 28 29 29 29 29 28 26 25 23 21 20 19 17 16 14 16 17 16 17 19 16 20 18 21 21 23
8 5 16 20 20 19 20 19 21 24 26 25 25 26 26 28 30 30 31 31 31 31 30 29 28 27 25 22 21 20 19 18 16 18 20 19 17 18 18 19 20 21 22
20 19 8 8 8 11 17 15 17 22 26 28 30 31 32 33 34 34 33 32 32 32 32 31 31 30 28 26 23 22 21 19 19 19 19 19 16 18 20 21 20 20 22
23 22 24 20 15 10 2 1 6 13 14 23 32 31 31 33 35 35 35 34 36 35 33 33 33 31 29 28 26 23 23 23 23 22 22 21 20 20 22 21 20 21 22
25 23 21 18 15 12 10 6 7 5 14 18 20 22 22 30 38 35 35 35 38 35 37 36 35 33 32 31 29 26 24 24 25 24 24 23 23 22 21 20 21 22 23
26 25 24 19 15 11 9 8 8 7 5 8 12 14 17 46 36 30 32 34 37 34 37 36 35 35 34 35 33 29 27 25 24 23 24 23 23 23 22 19 20 23 24
27 25 23 19 18 16 13 11 11 12 13 15 13 14 14 14 34 43 39 32 37 36 37 37 37 37 35 36 33 31 26 25 25 25 25 24 25 24 23 21 21 23 23
26 26 24 23 22 20 23 25 22 23 23 20 23 17 14 11 9 9 24 32 35 35 40 40 32 30 31 31 24 22 23 23 24 26 25 27 27 27 25 24 23 23 24
28 26 25 23 22 24 23 22 17 24 16 23 20 23 21 19 19 16 14 16 31 35 33 41 40 28 29 24 15 7 3 6 25 27 26 29 31 29 28 27 26 26 25
28 26 24 23 22 23 23 22 22 23 23 23 29 33 29 28 26 25 22 20 18 23 36 37 39 32 21 17 27 8 2 5 3 15 31 31 32 32 31 30 29 29 26
24 26 25 23 22 21 23 23 21 15 16 20 28 31 35 34 32 29 26 24 24 24 21 34 40 35 34 22 26 30 13 6 3 2 10 30 35 35 33 32 31 30 29
26 24 23 21 22 24 24 21 21 20 18 23 24 30 34 34 30 29 27 28 25 24 26 22 32 32 36 28 24 26 20 13 7 3 3 5 22 33 36 35 33 30 30
25 23 23 24 21 23 24 23 21 21 23 24 25 25 25 29 34 32 31 29 28 27 23 25 26 36 36 36 35 34 32 12 7 4 2 2 6 15 32 34 33 31 30
Wind_Direction
159 166 168 164 159 153 151 150 150 152 153 153 150 142 135 132 133 138 144 146 147 149 151 154 159 161 159 149 119 108 107 111 107 106 121 131 132 133 133 133 135 139 139
175 169 171 169 165 160 156 155 155 157 157 158 159 155 148 143 142 144 145 145 147 149 151 155 159 158 159 153 135 120 112 117 115 120 132 140 138 138 136 141 146 144 141
171 173 175 176 172 168 164 161 161 162 161 163 165 162 157 153 151 151 150 150 151 152 153 153 155 162 172 173 164 150 146 147 137 139 146 142 142 144 138 141 151 150 144
175 180 180 181 180 174 171 169 167 168 167 168 168 168 164 161 159 158 157 156 156 156 155 157 159 161 165 166 161 158 166 149 138 118 127 141 152 157 157 148 158 158 157
177 187 185 185 186 181 178 178 176 174 173 172 173 174 171 168 167 165 164 163 161 161 160 158 157 161 160 155 153 151 156 146 145 148 159 140 154 158 253 165 164 171 167
174 188 191 191 191 189 187 186 186 183 180 178 178 178 178 175 175 174 173 170 168 165 161 157 158 163 161 160 160 161 164 175 171 168 168 145 167 169 172 197 185 179 175
169 188 194 201 198 195 194 191 193 192 188 184 183 183 185 183 182 182 183 180 177 174 173 171 165 169 171 171 169 177 175 194 182 176 174 186 175 174 179 188 194 189 180
175 184 194 205 204 200 198 195 195 198 196 192 187 188 189 189 189 189 190 189 187 186 189 185 179 177 177 176 179 185 179 191 179 175 159 170 188 206 189 202 202 196 188
183 187 190 190 202 207 204 201 201 200 201 197 193 191 192 194 196 198 198 197 196 194 194 194 191 189 188 192 192 192 181 186 200 191 192 213 224 195 192 197 206 204 196
183 192 195 196 201 206 206 205 204 204 202 199 197 196 197 196 201 206 205 205 202 200 202 204 201 199 198 198 196 198 192 186 211 206 208 226 173 189 201 199 213 210 204
190 198 201 203 205 210 208 203 202 201 200 201 204 204 205 204 203 206 211 211 210 209 207 209 209 205 205 205 202 203 203 196 211 217 205 205 209 213 203 210 216 215 210
201 208 211 210 212 210 210 205 201 201 200 203 206 206 209 213 211 211 213 214 214 215 215 213 214 214 209 211 210 206 210 208 212 220 210 209 210 206 205 212 214 213 213
232 224 230 214 214 216 213 209 206 202 204 207 209 209 211 215 218 217 217 216 216 215 218 218 214 216 216 216 215 216 215 214 214 214 209 201 198 206 211 222 217 214 213
282 305 233 222 216 217 214 211 214 215 214 212 213 215 214 214 220 221 220 219 217 216 217 219 219 220 221 221 221 219 216 211 213 208 200 203 202 219 227 221 215 215 214
3 275 212 222 225 215 208 211 216 218 223 224 221 222 220 219 218 223 223 222 221 221 220 221 223 221 221 222 223 223 216 212 214 209 202 213 236 229 223 221 222 218 215
83 82 148 147 193 220 232 216 233 229 222 227 225 226 226 226 223 221 225 225 224 223 222 223 226 225 223 222 219 218 212 211 209 211 212 217 227 228 224 219 221 218 214
94 89 86 88 85 84 152 254 247 234 241 239 240 233 230 237 237 228 225 228 231 230 230 228 230 231 227 223 217 217 215 213 208 213 220 232 229 228 225 221 218 220 217
106 91 82 77 72 67 63 55 38 345 256 265 268 276 250 264 249 236 233 234 236 234 234 231 231 228 225 224 221 218 219 211 206 212 227 233 233 229 227 227 221 217 218
103 96 80 71 61 50 41 32 13 2 338 313 340 327 255 245 253 256 249 242 242 242 236 233 231 228 219 222 222 215 216 215 213 220 230 232 233 231 232 232 226 223 222
86 82 76 63 47 36 22 8 2 347 331 329 342 352 346 300 239 244 252 251 256 248 244 236 229 226 224 219 219 216 216 221 222 224 228 231 229 233 237 235 226 226 228
77 70 59 50 40 33 23 13 357 344 337 322 323 324 336 356 303 280 261 254 254 259 256 248 228 222 221 222 199 205 209 218 222 223 225 228 227 229 234 236 230 233 231
71 65 57 49 37 30 22 12 0 340 330 326 319 315 313 311 315 321 315 301 262 251 246 258 250 239 227 217 213 154 190 215 230 223 225 226 229 228 230 230 234 235 238
68 64 55 44 32 22 12 0 352 341 332 331 323 319 319 316 312 310 305 302 299 279 252 248 252 243 237 222 241 205 188 217 138 209 222 227 227 228 229 230 233 236 238
58 56 48 36 26 16 6 3 4 359 333 321 319 315 311 312 311 311 307 301 294 291 289 250 252 243 226 213 243 254 261 167 161 180 220 227 228 229 231 233 232 237 240
53 43 37 25 19 9 7 5 356 344 328 320 316 315 313 311 309 307 305 302 296 291 283 288 257 227 217 209 212 232 249 227 187 136 189 200 224 231 234 236 236 237 239
38 33 27 23 22 9 5 360 353 338 328 323 319 317 313 313 313 310 309 307 302 297 291 283 277 245 227 218 215 217 210 208 205 152 135 181 206 224 228 232 234 235 239